Location: Newark
(33.6333°S, 78.8500°W)
Time: 12:00:59
(UTC+00:00)

Tiros 1 - Pass Details

Date: 23 October 2019
Orbit: 630 x 664 km, 48.4° (Epoch: 14 November)

Event Time Altitude Azimuth Distance (km) Brightness Sun altitude
Rises 20:02:28 0° 240° (WSW) 2,950 11.0 42.9°
Reaches altitude 10° 20:06:04 10° 212° (SSW) 2,036 10.0 42.2°
Maximum altitude 20:08:16 13° 184° (S) 1,835 9.5 41.7°
Drops below altitude 10° 20:10:28 10° 156° (SSE) 2,032 9.5 41.3°
Sets 20:14:03 0° 128° (SE) 2,939 10.1 40.6°
